Location: Unspecified
(40.7945°N, 0.0000°E)
Time: 19:50:58
(UTC+00:00)

Explorer 7 - Pass Details

Date: 18 June 2021
Orbit: 484 x 676 km, 50.3° (Epoch: 28 July)

Event Time Altitude Azimuth Distance (km) Brightness Sun altitude
Rises 01:25:51 0° 299° (WNW) 2,976 10.7 -22.8°
Reaches altitude 10° 01:28:33 10° 311° (NW) 2,038 9.9 -22.7°
Maximum altitude 01:32:34 27° 10° (N) 1,192 9.2 -22.4°
Drops below altitude 10° 01:36:24 10° 69° (ENE) 1,937 10.2 -22.1°
Sets 01:38:53 0° 82° (E) 2,800 10.9 -21.9°
